Ogden Hill AFB, UT

4:15 AM MDT on July 23, 2017 (GMT -0600)
Hill Air Force Base

Weather History for KHIF - December, 2013

Change the Weather History Date:

Monday, December 9, 2013

  Actual Average Record
Temperature  
Mean Temperature 6 °F -  
Max Temperature 13 °F 36 °F 52 °F (2015)
Min Temperature -2 °F 23 °F -2 °F (2013)
Degree Days  
Heating Degree Days 60    
Moisture  
Dew Point 0 °F    
Average Humidity 74    
Maximum Humidity 85    
Minimum Humidity 56    
Precipitation  
Precipitation 0.00 in - - ()
Snow  
Snow 0.00 in - - ()
Snow Depth 7.00 in    
Sea Level Pressure  
Sea Level Pressure 30.47 in    
Wind  
Wind Speed 8 mph (North)    
Max Wind Speed 15 mph    
Max Gust Speed -    
Visibility 10 miles    
Events Snow    
Averages and records for this station are not official NWS values.
T = Trace of Precipitation, MM = Missing Value Source: NWS Daily Summary

Daily Weather History Graph

Daily Weather History Graph

Search for Another Location

Airport or City:

Trip Planner

Search our weather history database for the weather conditions in past years. The results will help you decide how hot, cold, wet, or windy it might be!

Date:

Astronomy

Dec. 09, 2013 Rise Set
Actual Time 7:41 AM MST 4:59 PM MST
Civil Twilight 7:10 AM MST 5:30 PM MST
Nautical Twilight 6:36 AM MST 6:04 PM MST
Astronomical Twilight 6:02 AM MST 6:38 PM MST
Moon 12:33 PM MST (12/9) No Moon Set
Length of Visible Light 10h 19m
Length of Day
9h 17m
First Quarter, 52% of the Moon is Illuminated
Dec 9
First Quarter
Dec 17
Full
Dec 25
Last Quarter
Jan 1
New
Jan 7
First Quarter

Hourly Weather History & Observations

Time (MST) Temp. Windchill Dew Point Humidity Pressure Visibility Wind Dir Wind Speed Gust Speed Precip Events Conditions
12:03 AM 10.4 °F -1.5 °F 6.8 °F 85% 30.16 in 10.0 mi NW 8.1 mph - N/A Snow Light Snow
12:05 AM 10.4 °F -1.5 °F 6.8 °F 85% 30.16 in 10.0 mi NW 8.1 mph - N/A   Overcast
12:17 AM 8.6 °F -7.0 °F 5.0 °F 85% 30.17 in 10.0 mi NW 12.7 mph - N/A Snow Light Snow
12:28 AM 8.6 °F -6.3 °F 5.0 °F 85% 30.18 in 10.0 mi NNW 11.5 mph - N/A   Overcast
12:33 AM 8.6 °F -5.5 °F 5.0 °F 85% 30.19 in 10.0 mi NW 10.4 mph - N/A   Overcast
12:36 AM 8.6 °F -6.3 °F 5.0 °F 85% 30.19 in 10.0 mi NW 11.5 mph - N/A Snow Light Snow
12:41 AM 8.6 °F -6.3 °F 5.0 °F 85% 30.20 in 10.0 mi NNW 11.5 mph - N/A Snow Light Snow
12:51 AM 8.6 °F -4.7 °F 3.2 °F 79% 30.19 in 10.0 mi NNW 9.2 mph - N/A Snow Light Snow
12:55 AM 8.6 °F -3.7 °F 3.2 °F 79% 30.19 in 10.0 mi NNW 8.1 mph - N/A   Overcast
12:58 AM 8.6 °F -3.7 °F 3.2 °F 79% 30.38 in 10.0 mi NNW 8.1 mph - 0.00 in   Overcast
1:08 AM 6.8 °F -3.5 °F 1.4 °F 79% 30.20 in 10.0 mi NNW 5.8 mph - N/A   Overcast
1:14 AM 6.8 °F -4.8 °F 1.4 °F 79% 30.20 in 10.0 mi NNW 6.9 mph - N/A Snow Light Snow
1:31 AM 5.0 °F -8.1 °F -0.4 °F 78% 30.21 in 10.0 mi NW 8.1 mph - N/A   Mostly Cloudy
1:36 AM 5.0 °F -8.1 °F -2.2 °F 72% 30.21 in 10.0 mi NW 8.1 mph - N/A   Scattered Clouds
1:58 AM 4.3 °F - -1.7 °F 76% 30.40 in 10.0 mi Calm Calm - 0.00 in   Clear
2:58 AM 4.1 °F -9.2 °F -2.4 °F 75% 30.45 in 10.0 mi NNW 8.1 mph - N/A   Clear
3:58 AM 2.7 °F -4.8 °F -4.2 °F 73% 30.48 in 10.0 mi North 3.5 mph - N/A   Clear
4:58 AM 3.0 °F - -2.7 °F 77% 30.51 in 10.0 mi North 2.3 mph - N/A   Clear
5:58 AM 2.7 °F - -4.4 °F 73% 30.54 in 10.0 mi NW 2.3 mph - N/A   Clear
6:58 AM 1.6 °F -6.0 °F -4.2 °F 77% 30.58 in 10.0 mi East 3.5 mph - N/A   Clear
7:58 AM -2.4 °F -15.8 °F -7.8 °F 78% 30.61 in 10.0 mi South 6.9 mph - N/A   Clear
8:58 AM -2.4 °F -17.1 °F -6.9 °F 81% 30.64 in 10.0 mi SSE 8.1 mph - N/A   Clear
9:58 AM 3.7 °F -5.5 °F -2.9 °F 74% 30.64 in 10.0 mi SE 4.6 mph - N/A   Clear
10:58 AM 8.8 °F - -0.0 °F 67% 30.67 in 10.0 mi East 2.3 mph - N/A   Clear
11:58 AM 9.7 °F 1.4 °F 0.7 °F 67% 30.67 in 10.0 mi SSE 4.6 mph - N/A   Clear
12:58 PM 12.2 °F 6.1 °F -0.9 °F 56% 30.66 in 10.0 mi SSE 3.5 mph - N/A   Partly Cloudy
1:58 PM 13.8 °F 4.9 °F 2.3 °F 60% 30.66 in 10.0 mi SSW 5.8 mph - N/A   Mostly Cloudy
2:58 PM 11.7 °F 3.7 °F 2.3 °F 66% 30.67 in 10.0 mi SW 4.6 mph - N/A   Scattered Clouds
3:58 PM 12.0 °F 5.9 °F 1.9 °F 64% 30.70 in 10.0 mi SW 3.5 mph - N/A   Clear
4:58 PM 10.9 °F - 0.1 °F 62% 30.72 in 10.0 mi South 1.2 mph - N/A   Clear
5:58 PM 9.5 °F 3.0 °F 0.3 °F 66% 30.71 in 10.0 mi ESE 3.5 mph - N/A   Clear
6:58 PM 6.1 °F -4.3 °F -1.5 °F 71% 30.75 in 10.0 mi ESE 5.8 mph - N/A   Clear
7:58 PM 8.4 °F -2.8 °F -0.8 °F 66% 30.76 in 10.0 mi ESE 6.9 mph - N/A   Clear
8:58 PM 6.1 °F -8.7 °F -2.6 °F 68% 30.74 in 10.0 mi ESE 10.4 mph - N/A   Clear
9:58 PM 5.7 °F -9.9 °F -3.3 °F 66% 30.72 in 10.0 mi ESE 11.5 mph - N/A   Clear
10:58 PM 5.0 °F -13.0 °F -3.3 °F 69% 30.70 in 10.0 mi ESE 15.0 mph - N/A   Scattered Clouds
11:58 PM 6.1 °F -10.9 °F -2.6 °F 68% 30.69 in 10.0 mi ESE 13.8 mph - N/A   Mostly Cloudy